Location: Namasale
(1.5000°N, 32.6167°E)
Time: 06:10:15
(UTC+00:00)

Hubble Space Telescope - Pass Details

Date: 06 December 2021
Orbit: 534 x 538 km, 28.5° (Epoch: 19 January)

Event Time Altitude Azimuth Distance (km) Brightness Sun altitude
Exits shadow 03:11:02 - 334° (NNW) 2,468 3.7 -7.4°
Reaches altitude 10° 03:13:57 10° 2° (N) 1,768 3.2 -6.7°
Maximum altitude 03:15:37 12° 26° (NNE) 1,632 3.3 -6.3°
Drops below altitude 10° 03:17:18 10° 51° (NE) 1,770 3.8 -5.9°
Sets 03:20:49 0° 82° (E) 2,663 5.5 -5.1°
